Location: Helsinki
(60.1699°N, 24.9384°E)
Time: 21:26:13
(UTC+03:00)

Tiros 1 - All Passes

Search period start: 02 October 2022 00:00
Search period end: 12 October 2022 00:00
Orbit: 629 x 663 km, 48.4° (Epoch: 02 October)

Date Brightness Start Highest point End Pass type
(mag) Time Alt. Az. Time Alt. Az. Time Alt. Az.
02 Oct - 02:31:24 10° SSW 02:34:27 17° SSE 02:37:28 10° SE visible
02 Oct - 04:12:03 10° SW 04:15:29 20° S 04:18:53 10° SE visible
02 Oct - 05:54:08 10° SW 05:56:26 13° SSW 05:58:43 10° S visible
03 Oct - 01:16:41 10° S 01:18:37 12° SSE 01:20:32 10° SE night (unlit)
03 Oct - 02:56:08 10° SW 02:59:32 19° S 03:02:55 10° SE visible
03 Oct - 04:37:25 10° SW 04:40:35 18° SSW 04:43:44 10° SSE visible
04 Oct - 01:40:39 10° SSW 01:43:37 16° SSE 01:46:35 10° SE night (unlit)
04 Oct - 03:21:12 10° SW 03:24:40 20° S 03:28:05 10° SE visible
04 Oct - 05:03:10 10° SW 05:05:37 14° SSW 05:08:05 10° S visible
05 Oct - 00:26:05 10° S 00:27:48 12° SSE 00:29:31 10° SE night (unlit)
05 Oct - 02:05:19 10° SW 02:08:43 19° S 02:12:05 10° SE night (unlit)
05 Oct - 03:46:32 10° SW 03:49:46 18° SSW 03:52:59 10° SSE visible
06 Oct - 00:49:54 10° SSW 00:52:48 16° SSE 00:55:42 10° SE night (unlit)
06 Oct - 02:30:21 10° SW 02:33:50 20° S 02:37:17 10° SE night (unlit)
06 Oct - 04:12:12 10° SW 04:14:49 15° SSW 04:17:24 10° SSE visible
06 Oct - 23:35:33 10° SSE 23:37:00 11° SSE 23:38:27 10° SE night (unlit)
07 Oct - 01:14:31 10° SW 01:17:52 19° S 01:21:14 10° SE night (unlit)
07 Oct - 02:55:39 10° SW 02:58:56 19° SSW 03:02:13 10° SSE night (unlit)
07 Oct - 04:39:12 10° SW 04:39:46 10° SSW 04:40:21 10° SSW visible
07 Oct - 23:59:09 10° SSW 00:01:59 16° SSE 00:04:47 10° SE night (unlit)
08 Oct - 01:39:30 10° SW 01:42:59 20° S 01:46:28 10° SE night (unlit)
08 Oct - 03:21:15 10° SW 03:23:59 15° SSW 03:26:43 10° SSE night (unlit)
08 Oct - 22:45:06 10° SSE 22:46:11 11° SSE 22:47:16 10° SE night (unlit)
09 Oct - 00:23:42 10° SSW 00:27:02 19° S 00:30:22 10° SE night (unlit)
09 Oct - 02:04:46 10° SW 02:08:06 19° S 02:11:26 10° SE night (unlit)
09 Oct - 03:47:46 10° SW 03:48:57 11° SSW 03:50:08 10° SSW night (unlit)
09 Oct - 23:08:26 10° SSW 23:11:09 15° SSE 23:13:52 10° SE night (unlit)
10 Oct - 00:48:39 10° SW 00:52:09 20° S 00:55:38 10° SE night (unlit)
10 Oct - 02:30:19 10° SW 02:33:10 16° SSW 02:36:00 10° SSE night (unlit)
10 Oct - 21:54:55 10° SSE 21:55:22 10° SSE 21:55:48 10° SE night (unlit)
10 Oct - 23:32:54 10° SSW 23:36:12 19° SSE 23:39:29 10° SE night (unlit)
11 Oct - 01:13:53 10° SW 01:17:15 19° S 01:20:38 10° SE night (unlit)
11 Oct - 02:56:36 10° SW 02:58:08 11° SSW 02:59:41 10° S night (unlit)
11 Oct - 22:17:42 10° S 22:20:19 15° SSE 22:22:55 10° SE night (unlit)
